Weather History for False Pass, AK

Change the Weather History Date:

Saturday, February 1, 2014

  Actual Average (PACD) Record (PACD)
Temperature  
Mean Temperature - 28 °F  
Max Temperature - 33 °F 45 °F (1985)
Min Temperature - 24 °F -1 °F (1993)
Degree Days  
Heating Degree Days 37  
Month to date heating degree days 37  
Since 1 July heating degree days 5253  
Cooling Degree Days    
Month to date cooling degree days  
Year to date cooling degree days  
Moisture  
Dew Point -    
Average Humidity    
Maximum Humidity    
Minimum Humidity    
Precipitation  
Precipitation 0.00 in 0.11 in 0.70 in (2000)
Month to date precipitation 0.11  
Year to date precipitation 3.27  
Snow  
Snow 0.00 in 0.50 in 8.90 in (2006)
Month to date snowfall 0.5  
Since 1 July snowfall 39.8  
Snow Depth -    
Sea Level Pressure  
Sea Level Pressure 30.52 in    
Wind  
Wind Speed 7 mph (WNW)    
Max Wind Speed 15 mph    
Max Gust Speed 21 mph    
Visibility 7 miles    
Events Rain    
T = Trace of Precipitation, MM = Missing Value Source: NWS Daily Summary

Daily Weather History Graph

Daily Weather History Graph

Search for Another Location

Airport:

Trip Planner

Search our weather history database for the weather conditions in past years. The results will help you decide how hot, cold, wet, or windy it might be!

Date:

Astronomy

Feb. 01, 2014 Rise Set
Actual Time 8:43 AM HAST 5:32 PM HAST
Civil Twilight 8:03 AM HAST 6:11 PM HAST
Nautical Twilight 7:20 AM HAST 6:55 PM HAST
Astronomical Twilight 6:37 AM HAST 7:37 PM HAST
Moon 9:09 AM HAST (2/1) 8:57 PM HAST (2/1)
Length of Visible Light 10h 08m
Length of Day
8h 48m
Waxing Crescent, 6% of the Moon is Illuminated
Feb 1
Waxing Crescent
Feb 6
First Quarter
Feb 14
Full
Feb 22
Last Quarter
Feb 28
New

Hourly Weather History & Observations

Time (HAST) Temp. Dew Point Humidity Pressure Visibility Wind Dir Wind Speed Gust Speed Precip Events Conditions
12:01 AM - - N/A% 30.42 in 10.0 mi WSW 6.9 mph - N/A   Mostly Cloudy
1:01 AM - - N/A% 30.44 in 10.0 mi SW 4.6 mph - N/A   Mostly Cloudy
2:01 AM - - N/A% 30.44 in 10.0 mi SSW 4.6 mph - N/A   Mostly Cloudy
3:01 AM - - N/A% 30.45 in 10.0 mi Calm Calm - 0.00 in Rain Light Rain
4:01 AM - - N/A% 30.46 in 10.0 mi Variable 6.9 mph - 0.00 in   Mostly Cloudy
4:08 AM - - N/A% 30.46 in 10.0 mi SW 6.9 mph - 0.00 in   Mostly Cloudy
5:01 AM - - N/A% 30.46 in 10.0 mi West 4.6 mph - 0.00 in   Overcast
6:01 AM - - N/A% 30.48 in 10.0 mi NW 5.8 mph - 0.00 in Rain Light Rain
6:32 AM - - N/A% 30.49 in 2.5 mi West 4.6 mph - 0.00 in   Unknown
6:42 AM - - N/A% 30.49 in 4.0 mi Variable 3.5 mph - 0.00 in   Unknown
7:01 AM - - N/A% 30.49 in 8.0 mi West 6.9 mph - 0.00 in   Unknown
7:21 AM - - N/A% 30.49 in 9.0 mi West 5.8 mph - 0.00 in   Overcast
7:33 AM - - N/A% 30.50 in 10.0 mi WNW 8.1 mph - 0.00 in   Overcast
8:01 AM - - N/A% 30.50 in 10.0 mi West 8.1 mph - 0.00 in   Overcast
9:01 AM - - N/A% 30.52 in 10.0 mi West 11.5 mph - N/A   Mostly Cloudy
10:01 AM - - N/A% 30.52 in 10.0 mi West 9.2 mph - N/A   Overcast
11:01 AM - - N/A% 30.54 in 10.0 mi West 6.9 mph - N/A   Scattered Clouds
12:01 PM - - N/A% 30.55 in 10.0 mi West 8.1 mph - N/A   Clear
1:01 PM - - N/A% 30.55 in 10.0 mi WSW 9.2 mph - N/A   Partly Cloudy
2:01 PM - - N/A% 30.54 in 10.0 mi West 13.8 mph - 0.00 in Rain Light Rain
2:27 PM - - N/A% 30.54 in 5.0 mi West 5.8 mph - 0.00 in   Unknown
2:58 PM - - N/A% 30.55 in 1.5 mi NNW 10.4 mph - 0.00 in Rain Light Rain
3:01 PM - - N/A% 30.55 in 0.5 mi NW 10.4 mph - 0.00 in   Unknown
3:09 PM - - N/A% 30.55 in 0.2 mi NNW 6.9 mph - 0.00 in   Unknown
3:25 PM - - N/A% 30.54 in 0.8 mi NNW 5.8 mph - 0.00 in   Unknown
3:37 PM - - N/A% 30.54 in 1.2 mi NNW 6.9 mph - 0.00 in   Unknown
3:48 PM - - N/A% 30.54 in 4.0 mi North 6.9 mph - 0.00 in   Unknown
4:01 PM - - N/A% 30.54 in 2.0 mi North 5.8 mph - 0.00 in   Unknown
4:08 PM - - N/A% 30.55 in 1.0 mi North 4.6 mph - 0.00 in   Unknown
4:16 PM - - N/A% 30.55 in 1.2 mi Calm Calm - 0.00 in   Unknown
4:23 PM - - N/A% 30.55 in 0.8 mi Variable 3.5 mph - 0.00 in   Unknown
4:34 PM - - N/A% 30.54 in 1.0 mi West 6.9 mph - 0.00 in   Unknown
4:41 PM - - N/A% 30.54 in 1.8 mi WSW 12.7 mph 17.3 mph 0.00 in   Unknown
4:48 PM - - N/A% 30.54 in 6.0 mi West 10.4 mph 17.3 mph 0.00 in   Unknown
4:57 PM - - N/A% 30.54 in 10.0 mi West 9.2 mph - 0.00 in Rain Light Rain
5:01 PM - - N/A% 30.54 in 10.0 mi West 8.1 mph - N/A Rain Light Rain
6:01 PM - - N/A% 30.55 in 10.0 mi WNW 9.2 mph - 0.00 in   Mostly Cloudy
6:51 PM - - N/A% 30.56 in 1.8 mi NNW 15.0 mph 19.6 mph 0.00 in   Unknown
7:01 PM - - N/A% 30.56 in 1.0 mi NNW 9.2 mph - 0.00 in   Unknown
7:07 PM - - N/A% 30.56 in 1.0 mi NW 10.4 mph - 0.00 in   Unknown
7:12 PM - - N/A% 30.56 in 1.0 mi NNW 6.9 mph - 0.00 in   Unknown
7:19 PM - - N/A% 30.56 in 2.0 mi West 5.8 mph - 0.00 in   Unknown
7:27 PM - - N/A% 30.56 in 9.0 mi West 10.4 mph - 0.00 in   Unknown
7:57 PM - - N/A% 30.55 in 10.0 mi WNW 9.2 mph - 0.00 in   Overcast
8:01 PM - - N/A% 30.55 in 10.0 mi WNW 9.2 mph - 0.00 in   Overcast
9:01 PM - - N/A% 30.54 in 10.0 mi WNW 8.1 mph - 0.00 in   Partly Cloudy
9:49 PM - - N/A% 30.54 in 10.0 mi WNW 11.5 mph 19.6 mph N/A   Overcast
10:01 PM - - N/A% 30.54 in 10.0 mi WNW 9.2 mph 18.4 mph 0.00 in Rain Light Rain
10:09 PM - - N/A% 30.54 in 10.0 mi WNW 8.1 mph - 0.00 in Rain Light Rain
10:25 PM - - N/A% 30.54 in 10.0 mi WNW 12.7 mph 19.6 mph 0.00 in   Overcast
10:52 PM - - N/A% 30.54 in 10.0 mi WNW 13.8 mph 20.7 mph 0.00 in   Overcast
11:01 PM - - N/A% 30.54 in 10.0 mi WNW 11.5 mph - 0.00 in   Overcast